Simultaneous Nadir Overpasses (SNOs) Predictions

Prediction of SNOs between NPP and PACE Satellite Orbit:

Table of predicted SNOs for the next 14.0 days since TLE Epoch: 5/25/2024
Index Date (NPP) Time (NPP) Lat,Lon (NPP) SZA (NPP ) Date (PACE) Time (PACE) Lat,Lon (PACE) SZA (PACE ) Distance(km) Time Diff (sec)
1 05/26/2024 19:23:56 -79.90, 31.32 119.28 05/26/2024 19:23:44 -79.89, 31.39 119.29 1.47 12
2 05/28/2024 22:59:39 80.06, 155.82 60.69 05/28/2024 23:00:49 80.06, 155.86 60.65 0.86 70
3 05/28/2024 23:50:17 -79.86, -34.85 119.70 05/28/2024 23:49:53 -79.86, -34.89 119.68 0.90 24
4 05/31/2024 03:26:00 80.02, 89.60 60.31 05/31/2024 03:26:57 80.02, 89.64 60.28 0.82 57
5 05/31/2024 04:16:38 -79.82,-101.07 120.08 05/31/2024 04:16:01 -79.82,-101.12 120.06 0.82 37
6 06/02/2024 07:52:23 80.05, 22.74 60.09 06/02/2024 07:53:06 80.04, 22.90 60.04 3.16 43
7 06/02/2024 08:43:01 -79.84,-167.92 120.31 06/02/2024 08:42:10 -79.84,-167.83 120.29 1.76 51
8 06/04/2024 12:18:43 79.99, -43.27 59.73 06/04/2024 12:19:12 79.99, -43.19 59.71 1.50 29
9 06/04/2024 13:09:21 -79.78, 126.06 120.66 06/04/2024 13:08:16 -79.78, 126.07 120.63 0.29 65



Historial Predications of SNOs between NPP and PACE
